User: anonymous   Login
Location: Fort Wayne
(41.1310°N, 85.1290°W)
Time: 18:48:10
(UTC-04:00)
Language:

OPAL - Orbit

View from above orbital plane
View from above orbital plane
View from above satellite
View from above satellite

Ground track
Ground track

The orbit data is extracted from the following two-line orbital elements,

1 26063U 00004C   14298.69623831  .00000413  00000-0  15983-3 0   957
2 26063 100.2262 108.8598 0037051 149.6711 210.6624 14.36422503772766
Epoch (UTC): 25 October 2014 16:42:34
Eccentricity: 0.0037051
inclination: 100.2262°
perigee height: 744 km
apogee height: 797 km
right ascension of ascending node: 108.8598°
argument of perigee: 149.6711°
revolutions per day: 14.36422503
mean anomaly at epoch: 210.6624°
orbit number at epoch: 77276

The dashed part of the orbit path shows where the satellite is in the earth's shadow,  

DLR